Hammond, LA

6:58 PM CST on December 06, 2019 (GMT -0600)
Hammond Municipal

Weather History for KHDC - November, 2019

Change the Weather History Date:

Sunday, November 10, 2019

  Actual Average (KMSY) Record (KMSY)
Temperature  
Mean Temperature 52 °F -  
Max Temperature 69 °F 71 °F 84 °F (1988)
Min Temperature 35 °F 51 °F 31 °F (1991)
Degree Days  
Heating Degree Days 13    
Growing Degree Days 2 (Base 50)    
Moisture  
Dew Point 44 °F    
Average Humidity 78    
Maximum Humidity 100    
Minimum Humidity 35    
Precipitation  
Precipitation 0.01 in - - ()
Sea Level Pressure  
Sea Level Pressure 30.17 in    
Wind  
Wind Speed 1 mph ()    
Max Wind Speed 6 mph    
Max Gust Speed -    
Visibility 9.9 miles    
Events      
Averages and records for this station are not official NWS values.
T = Trace of Precipitation, MM = Missing Value Source: Averaged Metar Reports

Daily Weather History Graph

Daily Weather History Graph

Search for Another Location

Airport or City:

Astronomy

Nov. 10, 2019 Rise Set
Actual Time 6:23 AM CST 5:07 PM CST
Civil Twilight 5:58 AM CST 5:32 PM CST
Nautical Twilight 5:29 AM CST 6:01 PM CST
Astronomical Twilight 5:00 AM CST 6:29 PM CST
Moon 4:23 PM CST (11/10) 4:28 AM CST (11/10)
Length of Visible Light 11h 34m
Length of Day
10h 44m
Waxing Gibbous, 97% of the Moon is Illuminated
Nov 10
Waxing Gibbous
Nov 12
Full
Nov 19
Last Quarter
Nov 26
New
Dec 4
First Quarter

Hourly Weather History & Observations

Time (CST) Temp. Dew Point Humidity Pressure Visibility Wind Dir Wind Speed Gust Speed Precip Events Conditions
12:55 AM 41.0 °F 39.2 °F 93% 30.21 in 10.0 mi Calm Calm - N/A   Clear
1:15 AM 37.4 °F 37.4 °F 100% 30.21 in 10.0 mi Calm Calm - N/A   Clear
1:35 AM 37.4 °F 37.4 °F 100% 30.20 in 10.0 mi Calm Calm - N/A   Clear
1:55 AM 37.4 °F 37.4 °F 100% 30.20 in 10.0 mi Calm Calm - N/A   Clear
2:15 AM 37.4 °F 37.4 °F 100% 30.19 in 10.0 mi Calm Calm - N/A   Clear
2:35 AM 37.4 °F 37.4 °F 100% 30.19 in 10.0 mi Calm Calm - N/A   Clear
2:55 AM 37.4 °F 37.4 °F 100% 30.19 in 10.0 mi Calm Calm - N/A   Clear
3:15 AM 37.4 °F 37.4 °F 100% 30.19 in 10.0 mi Calm Calm - N/A   Clear
3:35 AM 37.4 °F 35.6 °F 93% 30.20 in 10.0 mi Calm Calm - N/A   Clear
3:55 AM 37.4 °F 35.6 °F 93% 30.20 in 10.0 mi Calm Calm - N/A   Clear
4:15 AM 37.4 °F 35.6 °F 93% 30.20 in 10.0 mi Calm Calm - N/A   Clear
4:35 AM 37.4 °F 35.6 °F 93% 30.20 in 10.0 mi Calm Calm - N/A   Clear
4:55 AM 37.4 °F 35.6 °F 93% 30.20 in 10.0 mi Calm Calm - N/A   Clear
5:15 AM 35.6 °F 35.6 °F 100% 30.20 in 10.0 mi Calm Calm - N/A   Clear
5:35 AM 35.6 °F 35.6 °F 100% 30.21 in 10.0 mi Calm Calm - N/A   Clear
5:55 AM 35.6 °F 35.6 °F 100% 30.21 in 10.0 mi Calm Calm - N/A   Clear
6:15 AM 35.6 °F 35.6 °F 100% 30.22 in 10.0 mi Calm Calm - N/A   Clear
6:35 AM 37.4 °F 35.6 °F 93% 30.23 in 10.0 mi Calm Calm - N/A   Clear
6:55 AM 37.4 °F 37.4 °F 100% 30.23 in 10.0 mi Calm Calm - N/A   Clear
7:15 AM 39.2 °F 37.4 °F 93% 30.23 in 10.0 mi Calm Calm - N/A   Clear
7:55 AM 46.4 °F 41.0 °F 81% 30.24 in 10.0 mi Calm Calm - N/A   Clear
8:15 AM 50.0 °F 41.0 °F 71% 30.24 in 10.0 mi Calm Calm - N/A   Clear
8:55 AM 53.6 °F 42.8 °F 67% 30.24 in 10.0 mi Calm Calm - N/A   Clear
9:15 AM 57.2 °F 42.8 °F 59% 30.24 in 10.0 mi Calm Calm - N/A   Clear
9:35 AM 59.0 °F 42.8 °F 55% 30.24 in 10.0 mi Calm Calm - N/A   Clear
9:55 AM 60.8 °F 42.8 °F 52% 30.24 in 10.0 mi Calm Calm - N/A   Clear
10:15 AM 62.6 °F 41.0 °F 45% 30.24 in 10.0 mi East 3.5 mph - N/A   Clear
10:35 AM 64.4 °F 42.8 °F 45% 30.23 in 10.0 mi Calm Calm - N/A   Clear
10:55 AM 64.4 °F 44.6 °F 49% 30.22 in 10.0 mi Calm Calm - N/A   Clear
11:35 AM 66.2 °F 46.4 °F 49% 30.20 in 10.0 mi Calm Calm - N/A   Clear
11:55 AM 66.2 °F 46.4 °F 49% 30.18 in 10.0 mi Calm Calm - N/A   Clear
12:15 PM 68.0 °F 42.8 °F 40% 30.17 in 10.0 mi South 4.6 mph - N/A   Clear
12:35 PM 69.8 °F 44.6 °F 40% 30.16 in 10.0 mi Calm Calm - N/A   Clear
12:55 PM 69.8 °F 44.6 °F 40% 30.15 in 10.0 mi Calm Calm - N/A   Clear
1:15 PM 69.8 °F 46.4 °F 43% 30.14 in 10.0 mi SE 3.5 mph - N/A   Clear
2:15 PM 69.8 °F 42.8 °F 38% 30.12 in 10.0 mi SSW 3.5 mph - 0.01 in   Clear
2:35 PM 69.8 °F 44.6 °F 40% 30.12 in 10.0 mi SSW 5.8 mph - 0.01 in   Clear
2:55 PM 69.8 °F 42.8 °F 38% 30.12 in 10.0 mi South 4.6 mph - 0.01 in   Clear
3:15 PM 69.8 °F 42.8 °F 38% 30.12 in 10.0 mi SSW 5.8 mph - N/A   Clear
3:35 PM 69.8 °F 41.0 °F 35% 30.12 in 10.0 mi South 4.6 mph - N/A   Clear
4:15 PM 68.0 °F 46.4 °F 46% 30.11 in 10.0 mi SSE 4.6 mph - N/A   Clear
4:55 PM 64.4 °F 51.8 °F 64% 30.10 in 10.0 mi Calm Calm - N/A   Clear
5:15 PM 60.8 °F 51.8 °F 72% 30.10 in 10.0 mi SE 5.8 mph - N/A   Clear
5:35 PM 60.8 °F 53.6 °F 77% 30.10 in 10.0 mi SE 3.5 mph - N/A   Clear
5:55 PM 57.2 °F 51.8 °F 82% 30.10 in 10.0 mi Calm Calm - N/A   Clear
6:15 PM 55.4 °F 51.8 °F 88% 30.11 in 10.0 mi Calm Calm - N/A   Clear
6:35 PM 55.4 °F 51.8 °F 88% 30.11 in 10.0 mi Calm Calm - N/A   Clear
6:55 PM 53.6 °F 51.8 °F 94% 30.12 in 10.0 mi Calm Calm - N/A   Clear
7:15 PM 53.6 °F 51.8 °F 94% 30.12 in 10.0 mi Calm Calm - N/A   Clear
7:55 PM 53.6 °F 51.8 °F 94% 30.12 in 10.0 mi Calm Calm - N/A   Clear
8:15 PM 53.6 °F 51.8 °F 94% 30.12 in 10.0 mi Calm Calm - N/A   Clear
8:35 PM 53.6 °F 51.8 °F 94% 30.12 in 10.0 mi Calm Calm - N/A   Clear
8:55 PM 53.6 °F 51.8 °F 94% 30.12 in 10.0 mi Calm Calm - N/A   Clear
9:55 PM 53.6 °F 51.8 °F 94% 30.11 in 10.0 mi Calm Calm - N/A   Clear
10:15 PM 53.6 °F 51.8 °F 94% 30.12 in 10.0 mi Calm Calm - N/A   Clear
10:55 PM 53.6 °F 51.8 °F 94% 30.11 in 10.0 mi Calm Calm - N/A   Clear
11:15 PM 51.8 °F 51.8 °F 100% 30.10 in 4.0 mi Calm Calm - N/A   Clear
11:35 PM 50.0 °F 48.2 °F 94% 30.10 in 10.0 mi Calm Calm - N/A   Clear
11:55 PM 50.0 °F 50.0 °F 100% 30.10 in 10.0 mi Calm Calm - N/A   Clear